Meteopurmerend
purmerend
Purmerend - Baaienwijk



My webcam  My webcam


Onweer radar Meer informatie blitzortung!


Regen radar Meer informatie rain snow radar


Bezoek onze andere website:

CandyAppleRed WebdesignWebdesign Purmerend Candy Apple Red

MeteopurmerendBlog

Template documentation
and downloads



Mist van: 18-09-2021 08:00 tot: 09:00 waarschuwing voor: Mist niveau: Geel info button
Lokaal dichte mist (minder dan 200 m).Gevaarlijke rijomstandigheden door slecht zicht.Pas snelheid aan en houd voldoende afstand.Mist kan verraderlijk zijn door plotseling optreden.Volg weerberichten en waarschuwingen.

15 daagse weersverwachting Verona (IT)

  • Overzicht
  • Per uur
  • 15 dagen
  • Extra
  • Vergelijk
  • Kaarten
  • Dagkaart
  • Meer »
  • Info
  • Statistieken
  • Directe link
    Temp 6h Neerslag Wind  
 07:00     19:20    Daglengte: 12:20 Vandaag
14:00
24°
 
4
20:00
22°
 
3
 07:01     19:19    Daglengte: 12:18 Morgen
02:00
19°
2.9 mm
2
warningclass
08:00
19°
2.6 mm
3
14:00
22°
0.7 mm
4
warningclass
20:00
19°
2.1 mm
2
 07:02     19:17    Daglengte: 12:15 Maandag 20 Sep
02:00
17°
 
2
08:00
17°
8.1 mm
1
14:00
20°
16.8 mm
5
20:00
18°
11.1 mm
3
 07:04     19:15    Daglengte: 12:11 Dinsdag 21 Sep
02:00
17°
 
2
08:00
16°
 
1
Locatie info
Region: Veneto
Latitude: 45.4383°N
Longitude: 10.9917°E
62 masl
Postcode: 37122
Temp/Neerslag /Baro Onweer/Dauwpunt
    Temp Baro 1h Neerslag Dauwpunt Wind UV Bewolking  
 07:00     19:20    Daglengte: 12:20 Vandaag
11:00
22°
1013.5 hPa
18%
12.7°
3
Windvlaag: 1.2 m/s
18%
12:00
23°
1013.3 hPa   12.8°
4
Windvlaag: 0.8 m/s
13%
13:00
23°
1013.2 hPa   13.0°
4
Windvlaag: 1 m/s
11%
14:00
24°
1013.0 hPa   13.1°
4
Windvlaag: 1.5 m/s
12%
15:00
24°
1012.6 hPa   13.2°
4
Windvlaag: 2 m/s
23%
16:00
24°
1011.9 hPa   13.3°
3
Windvlaag: 2.4 m/s
16%
17:00
24°
1011.5 hPa
11%
13.8°
3
Windvlaag: 2.3 m/s
30%
18:00
24°
1011.3 hPa   13.6°
3
Windvlaag: 2.1 m/s
26%
19:00
23°
1011.4 hPa
23%
13.4°
3
Windvlaag: 1.4 m/s
50%
20:00
22°
1011.8 hPa
22%
12.9°
3
Windvlaag: 0.2 m/s
56%
21:00
21°
1012.1 hPa
75%
12.6°
3
Windvlaag: 0.4 m/s
83%
22:00
20°
1012.4 hPa 0.4 mm
75%
12.2°
3
Windvlaag: 1.4 m/s
64% warningclass
23:00
20°
1012.6 hPa 0.4 mm
76%
12.5°
3
Windvlaag: 1.8 m/s
77% warningclass
 07:01     19:19    Daglengte: 12:18 Morgen
00:00
19°
1012.7 hPa 0.7 mm
76%
12.7°
2
Windvlaag: 1 m/s
86% warningclass
01:00
19°
1012.3 hPa 0.8 mm
78%
12.9°
2
Windvlaag: 0.9 m/s
83% warningclass
02:00
19°
1012.2 hPa 0.6 mm
79%
13.3°
2
Windvlaag: 0.4 m/s
85% warningclass
03:00
19°
1012.0 hPa 0.9 mm
82%
13.5°
2
Windvlaag: 0.4 m/s
86%
04:00
19°
1011.8 hPa 0.6 mm
81%
12.9°
2
Windvlaag: 1.1 m/s
85%
05:00
19°
1011.4 hPa 0.6 mm
79%
12.9°
2
Windvlaag: 0.3 m/s
77%
06:00
19°
1011.4 hPa
76%
12.7°
2
Windvlaag: 0 m/s
63%
07:00
18°
1011.3 hPa 0.5 mm
73%
12.2°
2
Windvlaag: -0.4 m/s
53%
08:00
19°
1011.2 hPa
64%
12.1°
3
Windvlaag: 0.7 m/s
53%
09:00
19°
1011.2 hPa
27%
12.6°
3
Windvlaag: 0.9 m/s
14%
10:00
20°
1011.3 hPa
30%
13.0°
4
Windvlaag: 2.6 m/s
14%
11:00
21°
1011.4 hPa
30%
12.6°
4
Windvlaag: 2.3 m/s
36%
12:00
22°
1011.1 hPa
77%
12.5°
5
Windvlaag: 2.2 m/s
56%
13:00
22°
1010.5 hPa
79%
12.5°
5
Windvlaag: 2.3 m/s
65%
14:00
22°
1010.2 hPa 0.7 mm
82%
12.5°
4
Windvlaag: 2.4 m/s
27% warningclass
15:00
22°
1009.6 hPa
75%
12.6°
4
Windvlaag: 0.7 m/s
70%
16:00
22°
1009.4 hPa
78%
13.0°
3
Windvlaag: 2.1 m/s
69%
17:00
20°
1009.3 hPa 2.1 mm
82%
12.4°
3
Windvlaag: 2.6 m/s
54% warningclass
18:00
21°
1009.0 hPa
81%
13.0°
2
Windvlaag: 1.1 m/s
13%
19:00
20°
1009.1 hPa
22%
12.9°
2
Windvlaag: 1.6 m/s
14%
20:00
19°
1009.4 hPa
17%
12.8°
2
Windvlaag: 2.5 m/s
14%
21:00
18°
1009.9 hPa
16%
14.1°
1
Windvlaag: 1.9 m/s
25%
22:00
17°
1010.2 hPa
21%
14.2°
1
Windvlaag: 1.8 m/s
12%
23:00
17°
1010.5 hPa
64%
14.0°
1
Windvlaag: 1.7 m/s
36%
 07:02     19:17    Daglengte: 12:15 Maandag 20 Sep
00:00
17°
1010.8 hPa
58%
14.1°
1
Windvlaag: 1.2 m/s
30%
01:00
17°
1010.7 hPa
26%
14.6°
1
Windvlaag: -0.2 m/s
47%
02:00
17°
1010.9 hPa
18%
14.4°
2
Windvlaag: 0.8 m/s
33%
03:00
16°
1011.0 hPa
14%
14.2°
2
Windvlaag: 2.8 m/s
31%
04:00
16°
1011.2 hPa
14%
14.3°
1
Windvlaag: -0.1 m/s
18%
05:00
16°
1010.6 hPa
21%
11.7°
1
Windvlaag: 0.1 m/s
65%
06:00
16°
1011.0 hPa 2.1 mm
26%
11.9°
1
Windvlaag: 2.2 m/s
71%
07:00
15°
1011.5 hPa 2.4 mm
24%
11.9°
1
Windvlaag: -0.2 m/s
78%
08:00
17°
1012.4 hPa 3.5 mm
21%
11.8°
1
Windvlaag: 0.6 m/s
84%
09:00
17°
1012.9 hPa 4.4 mm
21%
11.3°
1
Windvlaag: 1.3 m/s
80%
10:00
18°
1013.4 hPa 3.0 mm
24%
11.3°
2
Windvlaag: 0.5 m/s
80%
11:00
19°
1013.9 hPa 2.7 mm
42%
10.9°
3
Windvlaag: -0.2 m/s
82%
12:00
19°
1014.0 hPa 2.2 mm
100%
9.7°
4
Windvlaag: -1 m/s
77% warningclass
13:00
19°
1013.9 hPa 2.0 mm
100%
8.5°
5
Windvlaag: -2.1 m/s
87%
14:00
20°
1013.8 hPa 2.4 mm
100%
8.1°
5
Windvlaag: -2.1 m/s
65%
15:00
20°
1013.8 hPa 3.3 mm
99%
7.9°
5
Windvlaag: -1.8 m/s
64%
16:00
20°
1013.8 hPa 2.6 mm
97%
7.3°
5
Windvlaag: -1.6 m/s
67%
17:00
20°
1013.9 hPa 2.4 mm
56%
6.8°
4
Windvlaag: -2.1 m/s
67%
18:00
19°
1014.4 hPa 2.8 mm
78%
7.0°
4
Windvlaag: -2.6 m/s
71%
19:00
19°
1015.0 hPa
22%
8.6°
3
Windvlaag: -4.2 m/s
68%
20:00
18°
1015.5 hPa
74%
9.0°
3
Windvlaag: -3.9 m/s
90%
21:00
18°
1016.1 hPa
73%
10.0°
3
Windvlaag: -2.8 m/s
87%
22:00
18°
1016.8 hPa
31%
10.4°
3
Windvlaag: -2.2 m/s
88%
23:00
17°
1017.3 hPa
39%
10.6°
2
Windvlaag: -1.1 m/s
86%
 07:04     19:15    Daglengte: 12:11 Dinsdag 21 Sep
00:00
17°
1017.9 hPa
39%
9.9°
3
Windvlaag: -0.8 m/s
84%
01:00
17°
1018.3 hPa
45%
5.9°
2
Windvlaag: 0.4 m/s
83%
02:00
17°
1018.4 hPa
41%
3.6°
2
Windvlaag: 0.3 m/s
70%
03:00
16°
1018.6 hPa
29%
2.7°
2
Windvlaag: 9.3 m/s
92%
04:00
16°
1018.9 hPa
27%
2.6°
2
Windvlaag: 9.1 m/s
84%
05:00
16°
1019.2 hPa
36%
3.0°
1
Windvlaag: 8.9 m/s
81%
06:00
16°
1019.6 hPa
36%
3.1°
2
Windvlaag: 8.5 m/s
69%
07:00
16°
1019.9 hPa
33%
3.9°
1
Windvlaag: 8.4 m/s
68%
08:00
16°
1020.6 hPa
29%
4.2°
1
Windvlaag: 7.7 m/s
86%
09:00
18°
1021.4 hPa 6.0 mm
100%
5.0°
5
Windvlaag: 8.1 m/s
48%
10:00
19°
1022.0 hPa 6.0 mm
100%
5.2°
5
Windvlaag: 6.2 m/s
54%
Temp/Neerslag /Baro Onweer/Dauwpunt
    Temp Baro Neerslag Dauwpunt Wind Bewolking  
 07:00     19:20    Daglengte: 12:20 Vandaag
11:00
22°
1013.5 hPa   12.7°
3
18%
14:00
24°
1013.0 hPa   13.1°
4
12%
17:00
24°
1011.5 hPa   13.8°
3
30%
20:00
22°
1011.8 hPa   12.9°
3
56%
23:00
20°
1012.6 hPa 0.8 mm 12.5°
3
77% warningclass
 07:01     19:19    Daglengte: 12:18 Morgen
02:00
19°
1012.2 hPa 2.0 mm 13.3°
2
85% warningclass
05:00
19°
1011.4 hPa 2.1 mm 12.9°
2
77%
08:00
19°
1011.2 hPa 0.5 mm 12.1°
3
53%
11:00
21°
1011.4 hPa   12.6°
4
36%
14:00
22°
1010.2 hPa 0.7 mm 12.5°
4
27% warningclass
17:00
20°
1009.3 hPa 2.1 mm 12.4°
3
54% warningclass
20:00
19°
1009.4 hPa   12.8°
2
14%
23:00
17°
1010.5 hPa   14.0°
1
36%
 07:02     19:17    Daglengte: 12:15 Maandag 20 Sep
02:00
17°
1010.9 hPa   14.4°
2
33%
05:00
16°
1010.6 hPa   11.7°
1
65%
08:00
17°
1012.4 hPa 8.1 mm 11.8°
1
84%
11:00
19°
1013.9 hPa 10.2 mm 10.9°
3
82%
14:00
20°
1013.8 hPa 6.6 mm 8.1°
5
65%
17:00
20°
1013.9 hPa 8.3 mm 6.8°
4
67%
20:00
18°
1015.5 hPa 2.8 mm 9.0°
3
90%
23:00
17°
1017.3 hPa   10.6°
2
86%
 07:04     19:15    Daglengte: 12:11 Dinsdag 21 Sep
02:00
17°
1018.4 hPa   3.6°
2
70%
05:00
16°
1019.2 hPa   3.0°
1
81%
08:00
16°
1020.6 hPa   4.2°
1
86%
11:00
20°
1022.3 hPa 18.0 mm 5.6°
5
50%
14:00
22°
1022.7 hPa 18.0 mm 6.0°
3
1%
17:00
23°
1021.7 hPa 16.5 mm 10.3°
1
1%
20:00
18°
1022.9 hPa 16.5 mm 10.3°
1
0%
23:00
17°
1023.6 hPa 16.5 mm 10.0°
2
0%
 07:05     19:13    Daglengte: 12:08 Woensdag 22 Sep
02:00
16°
1023.7 hPa 16.5 mm 9.8°
1
0%
05:00
16°
1023.0 hPa 16.5 mm 10.1°
1
0%
08:00
16°
1022.9 hPa 16.5 mm 10.9°
1
0%
11:00
20°
1022.6 hPa 16.5 mm 12.0°
2
1%
14:00
22°
1021.6 hPa 16.5 mm 12.2°
2
1%
17:00
22°
1020.6 hPa 16.5 mm 12.6°
1
1%
20:00
18°
1021.2 hPa 16.5 mm 11.6°
2
1%
23:00
16°
1021.7 hPa 16.5 mm 10.8°
2
1%
 07:06     19:11    Daglengte: 12:05 Donderdag 23 Sep
02:00
16°
1021.7 hPa 16.5 mm 10.3°
2
1%
05:00
15°
1020.7 hPa 16.5 mm 9.6°
2
0%
08:00
16°
1020.3 hPa 16.5 mm 10.0°
1
1%
11:00
20°
1019.8 hPa 16.5 mm 9.9°
1
1%
14:00
23°
1017.8 hPa 16.5 mm 10.8°
3
0%
17:00
22°
1014.9 hPa 16.5 mm 11.5°
3
0%
20:00
18°
1014.8 hPa 16.5 mm 11.9°
2
0%
23:00
17°
1014.8 hPa 16.5 mm 11.5°
1
0%
 07:07     19:09    Daglengte: 12:02 Vrijdag 24 Sep
02:00
16°
1013.7 hPa 16.5 mm 11.5°
1
0%
05:00
15°
1012.5 hPa 16.5 mm 11.1°
1
0%
08:00
16°
1012.4 hPa 16.5 mm 11.6°
1
0%
11:00
20°
1012.1 hPa 16.5 mm 12.6°
2
0%
14:00
23°
1010.6 hPa 16.5 mm 13.9°
3
0%
17:00
23°
1008.9 hPa 16.5 mm 14.8°
3
1%
20:00
19°
1009.2 hPa 16.5 mm 14.4°
2
1%
23:00
19°
1010.0 hPa 16.5 mm 13.8°
1
1%
 07:08     19:07    Daglengte: 11:59 Zaterdag 25 Sep
02:00
19°
1009.8 hPa 16.5 mm 13.8°
1
1%
05:00
18°
1009.6 hPa 16.5 mm 14.2°
0
1%
08:00
18°
1010.5 hPa 33.0 mm 14.1°
0
1%
14:00
24°
1011.4 hPa 33.0 mm 14.6°
1
0%
20:00
22°
1012.6 hPa 33.0 mm 13.8°
2
1%
 07:10     19:05    Daglengte: 11:55 Zondag 26 Sep
02:00
21°
1014.8 hPa 33.1 mm 14.4°
2
1%
08:00
19°
1016.1 hPa 33.1 mm 14.3°
2
0%
14:00
25°
1017.1 hPa 33.3 mm 14.7°
1
1%
20:00
22°
1017.0 hPa 33.5 mm 14.6°
2
1%
 07:11     19:03    Daglengte: 11:52 Maandag 27 Sep
02:00
19°
1018.6 hPa 33.5 mm 14.6°
1
0%
08:00
18°
1018.4 hPa 33.6 mm 14.7°
1
1%
14:00
26°
1017.3 hPa 33.7 mm 13.8°
2
1%
20:00
21°
1016.1 hPa 33.7 mm 14.0°
1
1%
 07:12     19:01    Daglengte: 11:49 Dinsdag 28 Sep
02:00
19°
1016.4 hPa 33.7 mm 13.4°
2
1%
08:00
15°
1021.7 hPa 0.1 mm 9.1°
2
23%
14:00
22°
1020.7 hPa 0.2 mm 10.1°
2
23%
20:00
19°
1021.2 hPa 0.1 mm 9.8°
1
22%
 07:13     18:59    Daglengte: 11:46 Woensdag 29 Sep
02:00
17°
1022.4 hPa 0.1 mm 9.9°
2
24%
08:00
16°
1022.2 hPa 0.1 mm 9.7°
2
29%
14:00
22°
1021.1 hPa 0.7 mm 10.6°
2
31%
20:00
19°
1021.2 hPa 1.0 mm 10.7°
0
36%
 07:15     18:57    Daglengte: 11:42 Donderdag 30 Sep
02:00
17°
1021.8 hPa 0.2 mm 10.7°
2
35%
08:00
16°
1021.2 hPa 0.2 mm 10.5°
1
35%
14:00
23°
1019.6 hPa 0.5 mm 11.2°
2
38%
20:00
20°
1019.0 hPa 0.6 mm 11.0°
1
38%
 07:16     18:55    Daglengte: 11:39 Vrijdag 01 Okt
02:00
17°
1019.0 hPa 0.5 mm 11.0°
2
46%
08:00
16°
1017.9 hPa 0.7 mm 10.8°
2
52%
14:00
22°
1016.0 hPa 1.1 mm 11.8°
1
55%
20:00
19°
1015.4 hPa 1.0 mm 11.4°
1
62%
 07:17     18:54    Daglengte: 11:37 Zaterdag 02 Okt
02:00
17°
1015.7 hPa 2.0 mm 10.8°
2
51%
08:00
16°
1015.5 hPa 1.5 mm 9.8°
2
52%
14:00
22°
1014.4 hPa 1.1 mm 10.4°
1
55%
20:00
19°
1014.9 hPa 2.2 mm 10.8°
1
48%
 07:18     18:52    Daglengte: 11:34 Zondag 03 Okt
02:00
16°
1015.9 hPa 1.7 mm 9.8°
2
52%
08:00
15°
1015.9 hPa 0.5 mm 8.5°
2
50%
  CAPE Lifted Index Hail Supercell Tornado SRH 3km CL BTM PRES CL TOP PRES Swiss DWD icon SMHI TS
 07:00     19:20    Daglengte: 12:20 Vandaag
11:00 0 J/kg 1.3 K 0 % 0 % 0 % 0 m²/s² 0 0 3.01 2
12:00 0 J/kg 1.3 K 0 % 0 % 0 % 0 m²/s² 0 0 3.16 2
13:00 0 J/kg 1.3 K 0 % 0 % 0 % 0 m²/s² 0 0 3.28 1
14:00 3 J/kg 0.7 K 0 % 0 % 0 % 0 m²/s² 0 0 2.62 1
15:00 48 J/kg 0.0 K 0 % 0 % 0 % 0 m²/s² 0 0 1.59 3
16:00 123 J/kg -1.0 K 0 % 0 % 0 % 0 m²/s² 0 0 0.17 2
17:00 239 J/kg -1.5 K 0 % 0 % 0 % 0 m²/s² 0 0 -0.48 3
18:00 385 J/kg -2.0 K 0 % 0 % 0 % 0 m²/s² 0 0 -0.89 3
19:00 502 J/kg -2.7 K 0 % 0 % 0 % 0 m²/s² 0 0 -1.8 3
20:00 491 J/kg -3.0 K 0 % 0 % 0 % 0 m²/s² 0 0 -2.04 3
21:00 372 J/kg -3.3 K 0 % 0 % 0 % 0 m²/s² 0 0 -2.25 3
22:00 628 J/kg -3.4 K 0 % 0 % 0 % 0 m²/s² 0 0 -2.08 3
23:00 877 J/kg -3.9 K 0 % 0 % 0 % 0 m²/s² 0 0 -3 3
 07:01     19:19    Daglengte: 12:18 Morgen
00:00 869 J/kg -3.7 K 0 % 0 % 0 % 0 m²/s² 0 0 -2.98 3
01:00 675 J/kg -3.5 K 0 % 0 % 0 % 0 m²/s² 0 0 -2.78 80
02:00 610 J/kg -3.4 K 0 % 0 % 0 % 0 m²/s² 0 0 -2.44 3
03:00 384 J/kg -3.1 K 0 % 0 % 0 % 0 m²/s² 0 0 -1.99 80
04:00 142 J/kg -3.0 K 0 % 0 % 0 % 0 m²/s² 0 0 -2.1 80
05:00 64 J/kg -2.9 K 0 % 0 % 0 % 0 m²/s² 0 0 -2.33 80
06:00 33 J/kg -3.2 K 0 % 0 % 0 % 0 m²/s² 0 0 -2.99 80
07:00 0 J/kg -2.3 K 0 % 0 % 0 % 0 m²/s² 0 0 -1.19 80
08:00 0 J/kg -1.3 K 0 % 0 % 0 % 0 m²/s² 0 0 0.53 80
09:00 3 J/kg -1.2 K 0 % 0 % 0 % 0 m²/s² 0 0 0.96 2
10:00 177 J/kg -1.3 K 0 % 0 % 0 % 0 m²/s² 0 0 0.11 2
11:00 313 J/kg -1.4 K 0 % 0 % 0 % 0 m²/s² 0 0 -0.35 3
12:00 556 J/kg -2.4 K 0 % 0 % 0 % 0 m²/s² 0 0 -1.98 3
13:00 608 J/kg -2.6 K 0 % 0 % 0 % 0 m²/s² 0 0 -2.6 3
14:00 781 J/kg -3.2 K 0 % 0 % 0 % 0 m²/s² 0 0 -3.17 80
15:00 943 J/kg -4.3 K 0 % 0 % 0 % 0 m²/s² 0 0 -4.27 3
16:00 1183 J/kg -4.4 K 0 % 0 % 0 % 0 m²/s² 0 0 -3.26 3
17:00 1311 J/kg -5.2 K 0 % 0 % 0 % 0 m²/s² 0 0 -5.08 80
18:00 1203 J/kg -5.5 K 0 % 0 % 0 % 0 m²/s² 0 0 -2.32 2
19:00 979 J/kg -5.1 K 0 % 0 % 0 % 0 m²/s² 0 0 -3.24 1
20:00 457 J/kg -2.8 K 0 % 0 % 0 % 0 m²/s² 0 0 -0.67 2
21:00 189 J/kg -1.2 K 0 % 0 % 0 % 0 m²/s² 0 0 0.48 2
22:00 4 J/kg 0.1 K 0 % 0 % 0 % 0 m²/s² 0 0 2.05 2
23:00 0 J/kg 2.0 K 0 % 0 % 0 % 0 m²/s² 0 0 3.14 2
 07:02     19:17    Daglengte: 12:15 Maandag 20 Sep
00:00 0 J/kg 4.0 K 0 % 0 % 0 % 0 m²/s² 0 0 4.75 2
01:00 0 J/kg 4.2 K 0 % 0 % 0 % 0 m²/s² 0 0 5.25 3
02:00 0 J/kg 4.2 K 0 % 0 % 0 % 0 m²/s² 0 0 5.19 2
03:00 0 J/kg 4.1 K 0 % 0 % 0 % 0 m²/s² 0 0 5.48 1
04:00 0 J/kg 3.5 K 0 % 0 % 0 % 0 m²/s² 0 0 4.82 2
05:00 0 J/kg 3.4 K 0 % 0 % 0 % 0 m²/s² 0 0 4.66 2
06:00 0 J/kg 3.1 K 0 % 0 % 0 % 0 m²/s² 0 0 4.3 3
07:00 0 J/kg 2.4 K 0 % 0 % 0 % 0 m²/s² 0 0 3.3 2
08:00 0 J/kg 2.9 K 0 % 0 % 0 % 0 m²/s² 0 0 3.5 3
09:00 0 J/kg 2.8 K 0 % 0 % 0 % 0 m²/s² 0 0 3.37 2
10:00 0 J/kg 2.8 K 0 % 0 % 0 % 0 m²/s² 0 0 3.22 2
11:00 0 J/kg 2.7 K 0 % 0 % 0 % 0 m²/s² 0 0 3.12 2
12:00 0 J/kg 2.5 K 0 % 0 % 0 % 0 m²/s² 0 0 3.19 95
13:00 0 J/kg 1.9 K 0 % 0 % 0 % 0 m²/s² 0 0 2.8 80
14:00 0 J/kg 1.4 K 0 % 0 % 0 % 0 m²/s² 0 0 2.3 80
15:00 0 J/kg 1.1 K 0 % 0 % 0 % 0 m²/s² 0 0 1.94 3
16:00 0 J/kg 0.8 K 0 % 0 % 0 % 0 m²/s² 0 0 1.73 3
17:00 0 J/kg 0.5 K 0 % 0 % 0 % 0 m²/s² 0 0 1.67 3
18:00 0 J/kg 0.3 K 0 % 0 % 0 % 0 m²/s² 0 0 1.65 3
19:00 0 J/kg 0.4 K 0 % 0 % 0 % 0 m²/s² 0 0 1.57 3
20:00 0 J/kg 1.0 K 0 % 0 % 0 % 0 m²/s² 0 0 2.02 3
21:00 0 J/kg 0.9 K 0 % 0 % 0 % 0 m²/s² 0 0 1.92 3
22:00 0 J/kg 1.0 K 0 % 0 % 0 % 0 m²/s² 0 0 1.78 3
23:00 0 J/kg 1.5 K 0 % 0 % 0 % 0 m²/s² 0 0 2.25 3
 07:04     19:15    Daglengte: 12:11 Dinsdag 21 Sep
00:00 0 J/kg 1.8 K 0 % 0 % 0 % 0 m²/s² 0 0 2.73 3
01:00 0 J/kg 2.6 K 0 % 0 % 0 % 0 m²/s² 0 0 3.35 3
02:00 0 J/kg 3.1 K 0 % 0 % 0 % 0 m²/s² 0 0 3.76 3
03:00 0 J/kg 3.5 K 0 % 0 % 0 % 0 m²/s² 0 0 4.34 3
04:00 0 J/kg 3.0 K 0 % 0 % 0 % 0 m²/s² 0 0 3.66 3
05:00 0 J/kg 3.3 K 0 % 0 % 0 % 0 m²/s² 0 0 4.05 3
06:00 0 J/kg 4.3 K 0 % 0 % 0 % 0 m²/s² 0 0 5.17 3
07:00 0 J/kg 5.9 K 0 % 0 % 0 % 0 m²/s² 0 0 6.83 3
08:00 0 J/kg 5.8 K 0 % 0 % 0 % 0 m²/s² 0 0 7.24 3
09:00 0 J/kg 6.0 K 0 % 0 % 0 % 0 m²/s² 0 0 8.19
10:00 0 J/kg 6.4 K 0 % 0 % 0 % 0 m²/s² 0 0 9.34
Temp Baro Wind Neerslag
  EWN Forecast EWN WRFDA DWD ICON FMI HIRLAM MET Norway GFS
 07:00     19:20    Daglengte: 12:20 Vandaag
11:00 22.1° 1013.5 hPa 3.4 m/s 0.0 mm 22.1° 1013.2 hPa 5.0 m/s 0.0 mm 22.2° 1013.6 hPa 1.8 m/s -2.0 mm 22.0° 1013.6 hPa 5.5 m/s 0.0 mm 22.6° 1013.3 hPa 1.8 m/s
14:00 23.9° 1013.0 hPa 3.9 m/s 0.0 mm 24.7° 1012.0 hPa 2.9 m/s 0.0 mm 24.4° 1012.6 hPa 2.8 m/s 0.0 mm 23.7° 1013.3 hPa 5.3 m/s 0.0 mm 24.3° 1012.6 hPa 2.4 m/s
17:00 24.4° 1011.5 hPa 2.9 m/s 0.0 mm 25.9° 1009.9 hPa 1.5 m/s 0.0 mm 24.5° 1011.3 hPa 2.3 m/s 0.0 mm 23.3° 1012.1 hPa 4.1 m/s 0.0 mm 24.0° 1011.7 hPa 2.1 m/s
20:00 21.6° 1011.8 hPa 2.6 m/s 0.0 mm 24.0° 1009.7 hPa 1.3 m/s 0.0 mm 21.3° 1011.9 hPa 1.8 m/s 0.0 mm 21.1° 1012.1 hPa 2.8 m/s 0.0 mm 20.8° 1011.4 hPa 2.3 m/s
23:00 19.9° 1012.6 hPa 2.8 m/s 0.8 mm 21.8° 1010.5 hPa 4.2 m/s 0.7 mm 19.6° 1012.7 hPa 0.8 m/s 0.8 mm 20.2° 1013.1 hPa 3.0 m/s 0.0 mm 19.3° 1012.6 hPa 1.9 m/s
 07:01     19:19    Daglengte: 12:18 Morgen
02:00 18.9° 1012.2 hPa 1.8 m/s 2.0 mm 19.9° 1010.2 hPa 3.7 m/s 2.5 mm 18.8° 1012.7 hPa 0.9 m/s 1.1 mm 18.7° 1012.4 hPa 1.6 m/s 0.0 mm 18.9° 1011.9 hPa 1.7 m/s
05:00 18.9° 1011.4 hPa 2.0 m/s 2.1 mm 19.8° 1009.9 hPa 4.3 m/s 2.8 mm 18.5° 1011.6 hPa 0.5 m/s 2.2 mm 18.9° 1011.9 hPa 1.8 m/s 0.0 mm 18.4° 1011.4 hPa 1.2 m/s
08:00 18.6° 1011.2 hPa 3.2 m/s 0.5 mm 19.3° 1009.6 hPa 4.9 m/s 3.7 mm 18.4° 1011.3 hPa 1.7 m/s 1.0 mm 19.8° 1012.2 hPa 3.2 m/s 0.0 mm 18.3° 1011.6 hPa 1.5 m/s
11:00 21.3° 1011.4 hPa 4.4 m/s 0.0 mm 22.7° 1009.0 hPa 4.8 m/s 4.0 mm 21.1° 1011.6 hPa 3.3 m/s 0.0 mm 21.2° 1012.3 hPa 4.4 m/s 0.0 mm 20.9° 1011.2 hPa 2.9 m/s
14:00 21.7° 1010.2 hPa 4.2 m/s 0.7 mm 21.9° 1007.9 hPa 3.7 m/s 5.6 mm 21.3° 1010.2 hPa 3.7 m/s 0.3 mm 24.5° 1011.6 hPa 4.1 m/s 0.0 mm 21.8° 1009.9 hPa 3.3 m/s
17:00 20.2° 1009.3 hPa 2.5 m/s 2.1 mm 20.2° 1006.0 hPa 5.3 m/s 11.1 mm 19.5° 1009.5 hPa 1.3 m/s 2.3 mm 24.4° 1010.8 hPa 2.2 m/s 0.0 mm 21.9° 1008.6 hPa 2.3 m/s
20:00 18.5° 1009.4 hPa 2.2 m/s 0.0 mm 18.9° 1005.8 hPa 4.1 m/s 17.2 mm 17.9° 1009.5 hPa 1.7 m/s 0.0 mm 22.4° 1011.4 hPa 1.9 m/s 0.0 mm 17.9° 1008.8 hPa 2.3 m/s
23:00 16.6° 1010.5 hPa 1.2 m/s 0.0 mm 17.0° 1006.5 hPa 2.3 m/s 17.8 mm 16.1° 1010.6 hPa 1.3 m/s 0.0 mm 19.0° 1012.6 hPa 1.1 m/s 0.0 mm 17.1° 1010.0 hPa 1.1 m/s
 07:02     19:17    Daglengte: 12:15 Maandag 20 Sep
02:00 16.9° 1010.9 hPa 1.6 m/s 0.0 mm 17.7° 1006.5 hPa 4.1 m/s 18.0 mm 16.6° 1011.1 hPa 1.2 m/s 0.0 mm 17.5° 1013.0 hPa 1.5 m/s 0.0 mm 16.0° 1010.6 hPa 0.8 m/s
05:00 15.7° 1010.6 hPa 1.4 m/s 0.0 mm 15.6° 1008.2 hPa 2.4 m/s 18.0 mm 15.5° 1011.7 hPa 0.6 m/s 0.0 mm 14.9° 1011.1 hPa 2.1 m/s
08:00 16.5° 1012.4 hPa 1.1 m/s 8.1 mm 17.0° 1010.8 hPa 4.7 m/s 18.0 mm 15.7° 1013.0 hPa 0.4 m/s 0.0 mm 15.2° 1013.6 hPa 1.6 m/s
11:00 19.0° 1013.9 hPa 3.0 m/s 10.2 mm 19.5° 1012.7 hPa 6.1 m/s 18.0 mm 19.5° 1014.6 hPa 1.8 m/s 0.0 mm 20.3° 1015.0 hPa 1.7 m/s
14:00 19.7° 1013.8 hPa 4.9 m/s 6.6 mm 22.6° 1013.2 hPa 5.9 m/s 18.0 mm 20.1° 1014.6 hPa 2.6 m/s 2.8 mm 22.0° 1015.1 hPa 3.7 m/s
17:00 19.8° 1013.9 hPa 4.5 m/s 8.3 mm 23.3° 1012.8 hPa 4.6 m/s 18.0 mm 20.1° 1014.7 hPa 3.0 m/s 0.1 mm 21.8° 1014.8 hPa 4.5 m/s
20:00 18.1° 1015.5 hPa 2.8 m/s 2.8 mm 19.6° 1014.8 hPa 2.9 m/s 18.0 mm 18.4° 1016.1 hPa 0.4 m/s 0.0 mm 17.5° 1016.6 hPa 2.7 m/s
23:00 17.4° 1017.3 hPa 2.5 m/s 0.0 mm 17.5° 1017.0 hPa 2.7 m/s 18.0 mm 17.8° 1017.7 hPa 0.5 m/s 0.0 mm 16.6° 1018.4 hPa 2.5 m/s
 07:04     19:15    Daglengte: 12:11 Dinsdag 21 Sep
02:00 16.6° 1018.4 hPa 2.5 m/s 0.0 mm 17.4° 1018.7 hPa 5.2 m/s 18.0 mm 16.5° 1018.4 hPa 1.0 m/s 0.0 mm 16.0° 1019.6 hPa 2.3 m/s
05:00 16.4° 1019.2 hPa 1.4 m/s 0.0 mm 16.7° 1019.1 hPa 5.1 m/s 18.0 mm 16.3° 1019.2 hPa 0.5 m/s 0.0 mm 15.9° 1019.7 hPa 1.6 m/s
08:00 16.2° 1020.6 hPa 1.2 m/s 0.0 mm 16.7° 1020.6 hPa 5.0 m/s 18.0 mm 16.1° 1020.6 hPa 0.2 m/s 0.0 mm 16.2° 1020.9 hPa 1.2 m/s
11:00 20.1° 1022.3 hPa 5.1 m/s 18.0 mm 20.1° 1022.3 hPa 5.1 m/s 18.0 mm 20.6° 1022.5 hPa 1.0 m/s
14:00 22.3° 1022.7 hPa 2.8 m/s 18.0 mm 22.3° 1022.7 hPa 2.8 m/s 18.0 mm 23.0° 1022.4 hPa 1.8 m/s
17:00 22.9° 1021.7 hPa 1.5 m/s 16.5 mm 22.9° 1021.7 hPa 1.5 m/s 16.5 mm
20:00 18.4° 1022.9 hPa 0.7 m/s 16.5 mm 18.4° 1022.9 hPa 0.7 m/s 16.5 mm
23:00 17.0° 1023.6 hPa 1.8 m/s 16.5 mm 17.0° 1023.6 hPa 1.8 m/s 16.5 mm
 07:05     19:13    Daglengte: 12:08 Woensdag 22 Sep
02:00 16.3° 1023.7 hPa 1.4 m/s 16.5 mm 16.3° 1023.7 hPa 1.4 m/s 16.5 mm
05:00 15.7° 1023.0 hPa 1.4 m/s 16.5 mm 15.7° 1023.0 hPa 1.4 m/s 16.5 mm
08:00 16.1° 1022.9 hPa 0.7 m/s 16.5 mm 16.1° 1022.9 hPa 0.7 m/s 16.5 mm
11:00 20.2° 1022.6 hPa 1.6 m/s 16.5 mm 20.2° 1022.6 hPa 1.6 m/s 16.5 mm
14:00 22.2° 1021.6 hPa 2.0 m/s 16.5 mm 22.2° 1021.6 hPa 2.0 m/s 16.5 mm
17:00 21.9° 1020.6 hPa 1.5 m/s 16.5 mm 21.9° 1020.6 hPa 1.5 m/s 16.5 mm
20:00 18.5° 1021.2 hPa 2.3 m/s 16.5 mm 18.5° 1021.2 hPa 2.3 m/s 16.5 mm
23:00 16.5° 1021.7 hPa 2.0 m/s 16.5 mm 16.5° 1021.7 hPa 2.0 m/s 16.5 mm
 07:06     19:11    Daglengte: 12:05 Donderdag 23 Sep
02:00 15.5° 1021.7 hPa 1.9 m/s 16.5 mm 15.5° 1021.7 hPa 1.9 m/s 16.5 mm
05:00 15.2° 1020.7 hPa 1.8 m/s 16.5 mm 15.2° 1020.7 hPa 1.8 m/s 16.5 mm
08:00 16.5° 1020.3 hPa 1.0 m/s 16.5 mm 16.5° 1020.3 hPa 1.0 m/s 16.5 mm
11:00 20.1° 1019.8 hPa 1.2 m/s 16.5 mm 20.1° 1019.8 hPa 1.2 m/s 16.5 mm
14:00 22.6° 1017.8 hPa 2.6 m/s 16.5 mm 22.6° 1017.8 hPa 2.6 m/s 16.5 mm
17:00 22.4° 1014.9 hPa 2.7 m/s 16.5 mm 22.4° 1014.9 hPa 2.7 m/s 16.5 mm
20:00 18.5° 1014.8 hPa 1.5 m/s 16.5 mm 18.5° 1014.8 hPa 1.5 m/s 16.5 mm
23:00 17.4° 1014.8 hPa 0.9 m/s 16.5 mm 17.4° 1014.8 hPa 0.9 m/s 16.5 mm
 07:07     19:09    Daglengte: 12:02 Vrijdag 24 Sep
02:00 16.1° 1013.7 hPa 1.0 m/s 16.5 mm 16.1° 1013.7 hPa 1.0 m/s 16.5 mm
05:00 15.5° 1012.5 hPa 0.8 m/s 16.5 mm 15.5° 1012.5 hPa 0.8 m/s 16.5 mm
08:00 15.8° 1012.4 hPa 0.7 m/s 16.5 mm 15.8° 1012.4 hPa 0.7 m/s 16.5 mm
11:00 20.3° 1012.1 hPa 1.8 m/s 16.5 mm 20.3° 1012.1 hPa 1.8 m/s 16.5 mm
14:00 23.0° 1010.6 hPa 3.3 m/s 16.5 mm 23.0° 1010.6 hPa 3.3 m/s 16.5 mm
17:00 22.8° 1008.9 hPa 2.7 m/s 16.5 mm 22.8° 1008.9 hPa 2.7 m/s 16.5 mm
20:00 19.5° 1009.2 hPa 1.7 m/s 16.5 mm 19.5° 1009.2 hPa 1.7 m/s 16.5 mm
23:00 19.4° 1010.0 hPa 1.5 m/s 16.5 mm 19.4° 1010.0 hPa 1.5 m/s 16.5 mm
 07:08     19:07    Daglengte: 11:59 Zaterdag 25 Sep
02:00 19.1° 1009.8 hPa 0.7 m/s 16.5 mm 19.1° 1009.8 hPa 0.7 m/s 16.5 mm
05:00 18.4° 1009.6 hPa 0.4 m/s 16.5 mm 18.4° 1009.6 hPa 0.4 m/s 16.5 mm
08:00 18.4° 1010.5 hPa 0.3 m/s 16.5 mm 18.4° 1010.5 hPa 0.3 m/s 16.5 mm
14:00 24.5° 1011.4 hPa 1.5 m/s 16.5 mm 24.5° 1011.4 hPa 1.5 m/s 16.5 mm
20:00 22.3° 1012.6 hPa 1.9 m/s 16.5 mm 22.3° 1012.6 hPa 1.9 m/s 16.5 mm
 07:10     19:05    Daglengte: 11:55 Zondag 26 Sep
02:00 20.6° 1014.8 hPa 1.6 m/s 16.6 mm 20.6° 1014.8 hPa 1.6 m/s 16.6 mm
08:00 19.3° 1016.1 hPa 1.6 m/s 16.6 mm 19.3° 1016.1 hPa 1.6 m/s 16.6 mm
14:00 24.5° 1017.1 hPa 1.2 m/s 16.7 mm 24.5° 1017.1 hPa 1.2 m/s 16.7 mm
20:00 21.6° 1017.0 hPa 1.5 m/s 16.8 mm 21.6° 1017.0 hPa 1.5 m/s 16.8 mm
 07:11     19:03    Daglengte: 11:52 Maandag 27 Sep
02:00 18.7° 1018.6 hPa 1.4 m/s 16.8 mm 18.7° 1018.6 hPa 1.4 m/s 16.8 mm
08:00 18.4° 1018.4 hPa 1.0 m/s 16.8 mm 18.4° 1018.4 hPa 1.0 m/s 16.8 mm
14:00 25.6° 1017.3 hPa 2.3 m/s 16.8 mm 25.6° 1017.3 hPa 2.3 m/s 16.8 mm
20:00 21.4° 1016.1 hPa 1.5 m/s 16.8 mm 21.4° 1016.1 hPa 1.5 m/s 16.8 mm
 07:12     19:01    Daglengte: 11:49 Dinsdag 28 Sep
02:00 18.7° 1016.4 hPa 1.8 m/s 16.9 mm 18.7° 1016.4 hPa 1.8 m/s 16.9 mm
08:00 15.3° 1021.7 hPa 1.7 m/s 0.1 mm
14:00 22.3° 1020.7 hPa 1.8 m/s 0.2 mm
20:00 19.0° 1021.2 hPa 0.6 m/s 0.1 mm
 07:13     18:59    Daglengte: 11:46 Woensdag 29 Sep
02:00 16.6° 1022.4 hPa 1.8 m/s 0.1 mm
08:00 15.7° 1022.2 hPa 1.5 m/s 0.1 mm
14:00 22.5° 1021.1 hPa 1.8 m/s 0.7 mm
20:00 19.3° 1021.2 hPa 0.3 m/s 1.0 mm
 07:15     18:57    Daglengte: 11:42 Donderdag 30 Sep
02:00 17.0° 1021.8 hPa 1.6 m/s 0.2 mm
08:00 16.1° 1021.2 hPa 1.4 m/s 0.2 mm
14:00 23.1° 1019.6 hPa 1.8 m/s 0.5 mm
20:00 19.9° 1019.0 hPa 0.6 m/s 0.6 mm
 07:16     18:55    Daglengte: 11:39 Vrijdag 01 Okt
02:00 17.4° 1019.0 hPa 1.7 m/s 0.5 mm
08:00 16.5° 1017.9 hPa 1.6 m/s 0.7 mm
14:00 21.7° 1016.0 hPa 1.2 m/s 1.1 mm
20:00 18.9° 1015.4 hPa 0.8 m/s 1.0 mm
 07:17     18:54    Daglengte: 11:37 Zaterdag 02 Okt
02:00 16.6° 1015.7 hPa 2.1 m/s 2.0 mm
08:00 15.6° 1015.5 hPa 1.7 m/s 1.5 mm
14:00 21.5° 1014.4 hPa 1.3 m/s 1.1 mm
20:00 18.6° 1014.9 hPa 0.9 m/s 2.2 mm
 07:18     18:52    Daglengte: 11:34 Zondag 03 Okt
02:00 16.1° 1015.9 hPa 1.8 m/s 1.7 mm
08:00 15.0° 1015.9 hPa 1.8 m/s 0.5 mm
FMI Hirlam - 7.5 km EWN WRFDA - 12 km DWD ICON - 7 km GFS - 25 km Basiskaart






























































Updatetijd (Europe/Amsterdam) Resolutie Lengte Stap
FMI Hirlam 07:15, 13:15, 19:15, 01:15 7.5 km 49h 1h
EWN WRFDA 09:45, 15:45, 21:45, 03:45 12 km 73h 1h
DWD ICON 06:30, 12:30, 18:30, 00:30 7 km 75h 1h
GFS 08:30, 14:30, 20:30, 02:30 25 km 237h 3h
30+ mm
25-30 mm
20-25 mm
15-20 mm
10-15 mm
6-10 mm
4-6 mm
2-4 mm
1-2 mm
0.5-1 mm
0.2-0.5 mm
0.1-0.2 mm
30+ mm
25-30 mm
20-25 mm
15-20 mm
10-15 mm
6-10 mm
4-6 mm
2-4 mm
1-2 mm
0.5-1 mm
0.2-0.5 mm
0.1-0.2 mm
Sneeuwval
Natte sneeuw
Hagel
Vorst
30+ mm
25-30 mm
20-25 mm
15-20 mm
10-15 mm
6-10 mm
4-6 mm
2-4 mm
1-2 mm
0.5-1 mm
0.2-0.5 mm
0.1-0.2 mm
Sneeuwval
Natte sneeuw
Hagel
Vorst
Onweer
50 mm
40 mm
30 mm
26 mm
22 mm
18 mm
14 mm
10 mm
9 mm
8 mm
7 mm
6 mm
5 mm
4.5 mm
4 mm
3.5 mm
3 mm
2.5 mm
2 mm
1.5 mm
1 mm
0.8 mm
0.6 mm
0.4 mm
0.2 mm
0.05 mm
35°
30°
25°
20°
15°
10°
-5°
-10°
-15°
-20°
-25°
-30°
-35°
33> m/s
29 m/s
25 m/s
21 m/s
17 m/s
14 m/s
11 m/s
8 m/s
5 m/s
3 m/s
0 m/s
2600 J/kg
2400 J/kg
2200 J/kg
2000 J/kg
1800 J/kg
1600 J/kg
1400 J/kg
1200 J/kg
1000 J/kg
800 J/kg
600 J/kg
400 J/kg
200 J/kg
70 dBZ
65 dBZ
60 dBZ
55 dBZ
50 dBZ
45 dBZ
40 dBZ
35 dBZ
30 dBZ
25 dBZ
20 dBZ
15 dBZ
10 dBZ
5 dBZ
-1 K
-2 K
-3 K
-4 K
-5 K
-6 K
-7 K
-8 K
-9 K
950 m²/s²
900 m²/s²
850 m²/s²
800 m²/s²
750 m²/s²
700 m²/s²
650 m²/s²
600 m²/s²
550 m²/s²
500 m²/s²
450 m²/s²
400 m²/s²
350 m²/s²
300 m²/s²
250 m²/s²
200 m²/s²
150 m²/s²
100 m²/s²
46 m/s
44 m/s
42 m/s
40 m/s
38 m/s
36 m/s
34 m/s
32 m/s
30 m/s
28 m/s
26 m/s
24 m/s
22 m/s
20 m/s
16 m/s
12 m/s
8 m/s
4 m/s
30 m/s
28 m/s
26 m/s
24 m/s
22 m/s
20 m/s
18 m/s
16 m/s
14 m/s
12 m/s
10 m/s
8 m/s
6 m/s
4 m/s
2 m/s
3.0
2.8
2.6
2.4
2.2
2.0
1.8
1.6
1.4
1.2
1.0
0.8
0.6
0.4
0.2
15
14
13
12
11
10
9
8
7
6
5
4
3
2
1
90%
80%
70%
60%
50%
40%
30%
20%
10%
42
40
38
36
34
32
30
28
26
24
22
20
18
16
14
12
90+ cm
80-90 cm
70-80 cm
60-70 cm
50-60 cm
40-50 cm
30-40 cm
20-30 cm
10-20 cm
1-10 cm
Sneeuwval
Natte sneeuw
Regen
>120 mm
115 mm
110 mm
105 mm
100 mm
95 mm
90 mm